Location: Palmerston North
(40.3500°S, 175.6170°E)
Time: 18:34:15
(UTC+13:00)

SL-16 R/B - Pass Details

Date: 24 January 2019
Orbit: 842 x 846 km, 71.0° (Epoch: 22 February)

Event Time Altitude Azimuth Distance (km) Brightness Sun altitude
Rises 22:37:39 0° 318° (NW) 3,401 5.3 -18.3°
Reaches altitude 10° 22:40:13 10° 310° (NW) 2,473 4.6 -18.6°
Maximum altitude 22:45:34 42° 240° (WSW) 1,212 3.5 -19.3°
Drops below altitude 10° 22:50:59 10° 170° (S) 2,497 5.2 -19.9°
Sets 22:53:37 0° 162° (SSE) 3,438 5.8 -20.3°
